Location: Coupvray
(48.8929°N, 2.7967°E)
Time: 08:32:00
(UTC+00:00)

CZ-4 R/B - Pass Details

Date: 14 July 2020
Orbit: 682 x 752 km, 98.5° (Epoch: 14 August)

Event Time Altitude Azimuth Distance (km) Brightness Sun altitude
Rises 00:01:04 0° 17° (NNE) 3,083 8.5 -19.5°
Reaches altitude 10° 00:03:21 10° 22° (NNE) 2,170 7.4 -19.4°
Maximum altitude 00:08:02 58° 101° (ESE) 827 4.1 -19.4°
Enters shadow 00:09:37 38° 160° (SSE) 1,074 4.3 -19.4°
